Theta_e
287 288 288 288 289 290 290 290 291 292 294 295 295 297 296 296 294 293 295 298 301 306 311 310 309 311 315 315 315 315 315 312 311 314 314 314 314 312 312 313 314 316 319 324 328 332 334 334 333 332 331 330 330 330 330 331 331 331 331 331 331 330 329 328 327 326 326 326 326 326 326 326 325 326
287 287 287 287 287 288 288 288 289 290 290 291 293 294 295 296 294 295 293 294 301 303 309 310 310 313 315 316 316 314 314 308 310 314 314 314 314 310 310 311 313 316 318 319 322 327 331 333 333 332 331 330 330 330 330 330 330 330 331 331 330 329 327 326 325 325 325 325 325 326 326 326 326 326
287 286 285 286 286 287 287 287 287 287 288 289 292 293 294 295 295 294 294 291 297 303 300 304 307 307 309 310 311 314 315 312 313 315 315 315 308 306 309 307 310 314 317 318 319 322 326 330 332 333 331 331 330 330 330 330 329 329 330 330 328 326 325 324 324 324 325 324 324 325 325 326 326 326
286 286 285 285 285 286 286 285 286 286 287 289 291 292 292 292 292 292 291 289 289 294 295 297 298 301 301 302 304 309 312 314 309 314 315 315 306 312 313 308 307 309 310 311 313 314 316 322 326 330 331 331 331 330 330 330 329 328 328 326 323 322 322 323 323 323 324 324 324 324 324 325 325 326
285 285 285 285 285 286 285 285 285 286 286 287 289 288 287 287 287 289 289 287 287 290 294 294 294 296 297 298 302 303 305 307 310 310 313 313 313 314 314 315 309 308 308 309 311 312 312 314 318 322 324 326 328 329 329 329 328 326 322 320 318 318 319 321 322 322 322 323 323 323 324 324 324 325
285 284 284 284 284 285 284 284 285 285 285 285 285 285 285 285 286 288 287 286 287 286 289 290 292 292 295 294 297 297 299 300 302 303 306 309 311 311 312 312 313 308 308 308 309 310 310 310 311 311 312 316 317 318 318 316 315 315 315 315 315 315 316 317 317 318 319 319 319 320 321 322 323 324
283 283 283 283 284 284 283 284 284 284 284 284 283 283 285 285 286 287 287 285 283 282 283 287 287 288 290 291 292 295 296 297 300 301 303 305 307 308 310 310 311 308 307 308 309 309 309 309 310 310 309 310 311 311 312 312 312 312 312 312 312 312 313 313 313 313 313 313 314 315 316 317 319 321
282 282 282 283 283 283 282 282 283 283 283 283 283 284 285 285 283 284 284 285 284 283 283 284 286 288 289 290 292 293 295 296 296 297 299 301 302 304 306 307 308 307 306 307 307 307 308 308 308 309 309 309 310 310 310 310 310 311 311 311 310 310 310 310 310 310 310 310 310 311 312 312 314 317
282 282 282 282 282 282 281 282 282 283 282 282 283 284 283 282 283 284 284 283 283 282 282 283 286 288 288 290 291 292 291 292 292 293 294 295 298 300 302 304 306 304 304 304 304 305 306 306 307 308 308 308 309 309 308 308 308 308 309 309 309 309 309 308 308 308 308 308 308 308 308 308 309 311
281 281 281 282 282 282 282 282 283 283 282 282 283 282 281 282 283 283 282 282 281 282 281 282 282 285 285 286 288 291 291 290 290 291 292 294 296 297 297 298 302 304 306 306 307 305 305 305 304 305 306 307 307 307 307 306 306 305 306 307 308 308 308 308 307 306 306 306 306 305 305 305 305 306
281 282 282 283 283 283 283 282 282 282 283 283 282 281 281 282 282 280 280 280 280 280 281 281 282 282 284 285 284 287 290 291 291 290 290 290 291 292 293 293 296 298 300 302 301 302 303 303 304 306 306 305 305 305 305 305 304 303 304 305 306 307 307 307 307 305 305 305 305 305 305 304 304 304
282 282 282 282 281 281 281 281 281 282 282 282 281 281 282 281 280 279 280 280 279 279 280 280 280 281 281 282 284 286 287 287 288 289 289 287 288 289 291 292 293 295 297 297 299 300 301 302 302 302 302 303 303 303 303 302 301 302 304 305 306 306 306 306 306 305 304 304 304 304 304 304 304 303
281 281 281 280 280 280 281 281 281 282 282 280 279 279 280 280 279 279 279 279 279 279 279 279 280 280 280 281 282 282 283 283 284 286 287 286 288 289 290 291 293 294 294 295 297 298 300 301 302 303 304 304 303 303 301 302 301 301 303 304 305 305 305 305 305 305 304 304 304 304 304 304 304 303
279 279 279 279 280 280 280 280 281 281 282 282 280 279 279 279 279 278 278 278 278 278 277 277 278 278 278 280 282 282 282 284 284 284 285 285 287 287 287 289 291 293 293 293 294 296 299 298 298 299 300 303 300 300 303 303 303 303 303 303 303 304 304 304 304 304 304 304 303 303 303 303 303 303
278 278 277 276 277 278 278 278 280 280 280 281 281 282 282 282 280 278 278 278 278 277 277 277 277 277 278 279 280 281 283 284 283 284 285 284 284 283 282 282 287 291 292 292 292 292 295 294 294 296 296 296 296 296 299 301 301 301 302 303 303 302 303 303 303 303 303 303 303 303 303 302 302 303
276 275 275 275 276 276 276 277 277 278 279 280 281 281 282 282 282 282 280 278 277 277 276 276 277 278 278 279 280 281 283 283 283 283 283 283 282 282 283 283 284 289 293 290 290 291 294 295 294 295 296 296 295 298 298 300 301 302 302 302 301 301 301 302 302 302 302 302 302 302 302 302 302 302
275 274 274 274 275 276 278 278 277 277 277 279 280 280 280 280 280 281 281 281 279 278 277 276 277 278 279 278 279 281 282 283 281 282 282 283 284 284 283 283 284 286 290 288 286 286 289 292 291 293 295 297 295 296 297 299 300 301 301 301 300 300 300 300 300 300 300 300 300 300 301 301 302 302
274 274 273 274 274 275 275 276 276 276 276 276 277 277 277 277 278 279 280 280 280 280 278 277 277 278 280 278 280 282 282 281 280 280 280 281 282 282 282 284 285 286 289 286 286 285 287 290 290 291 293 296 296 295 297 299 299 299 299 299 299 299 299 299 299 299 299 299 300 300 300 301 301 301
274 274 274 274 274 274 275 275 276 276 276 276 276 276 276 276 276 277 277 277 278 278 279 278 278 280 281 281 281 281 282 281 281 282 281 281 282 282 283 283 285 285 286 287 286 283 287 290 289 290 292 294 294 295 297 298 298 298 298 297 297 297 297 298 298 298 298 299 299 300 300 300 300 299
274 274 274 274 274 274 274 276 278 278 276 276 275 275 275 275 276 276 278 280 281 279 279 279 280 280 280 282 281 282 282 282 283 283 283 283 282 281 280 279 282 282 284 287 286 285 286 290 289 290 293 293 293 294 294 295 296 297 297 297 297 297 297 297 297 298 298 298 299 299 299 299 299 298
273 273 274 274 274 274 274 276 278 278 278 275 275 275 274 274 274 275 276 279 281 281 281 281 282 282 282 283 283 283 283 281 281 280 279 278 279 278 277 278 279 280 283 285 286 286 285 288 289 289 291 292 292 293 293 293 295 296 296 296 296 296 297 297 297 298 298 298 298 298 298 298 297 296
272 273 275 275 274 274 273 276 278 278 277 275 274 273 273 272 273 273 275 276 277 279 279 279 279 279 279 280 280 281 281 282 281 278 275 277 278 277 277 276 278 279 281 283 285 283 283 286 288 287 289 291 291 292 292 292 291 293 294 295 296 296 296 297 297 297 297 297 296 296 295 295 295 289
272 272 274 275 275 274 275 277 277 278 277 274 273 273 272 271 271 273 274 274 273 273 272 272 273 273 275 275 275 276 280 281 281 279 278 279 278 277 277 278 278 278 279 283 285 282 283 285 285 287 285 285 288 291 290 290 289 288 288 289 291 293 294 295 296 296 295 293 293 293 293 294 294 286
271 272 273 274 275 276 276 277 277 278 278 274 273 272 271 271 270 273 273 272 271 270 270 270 271 271 273 274 275 275 276 277 279 279 279 278 277 276 276 276 276 275 278 283 286 282 283 285 283 287 286 283 283 287 288 287 287 286 286 286 285 288 291 292 293 293 291 292 292 292 292 293 293 286
270 271 272 272 274 275 276 277 278 278 277 276 272 271 271 271 273 274 270 269 270 268 269 269 270 270 271 272 273 275 275 274 274 275 276 276 276 275 274 275 275 276 279 282 285 283 281 283 283 285 285 286 285 286 287 287 287 285 285 286 286 286 286 286 287 284 290 290 291 291 291 291 291 290
271 271 271 271 273 275 276 277 277 277 276 275 271 271 274 275 274 270 268 267 266 266 267 267 267 268 269 271 272 272 271 272 272 273 274 275 275 275 276 276 276 275 277 282 285 283 281 281 283 283 283 283 283 285 285 286 287 287 287 287 288 288 287 286 286 286 285 284 284 286 288 290 290 290
270 271 271 271 273 276 276 275 276 276 275 272 271 274 274 273 272 268 265 265 264 264 265 265 265 267 268 268 268 269 269 270 271 271 272 272 273 275 277 277 278 278 279 282 283 284 282 281 284 282 282 284 283 284 284 284 284 285 286 286 287 287 287 286 286 285 285 284 284 287 287 287 287 288
270 271 271 272 275 274 274 274 274 273 271 270 272 272 272 271 268 264 263 263 263 264 264 264 265 265 267 267 267 267 268 269 269 270 271 272 274 274 274 275 276 278 279 281 282 284 283 282 282 284 283 282 281 280 280 284 284 284 285 286 286 286 286 286 284 284 284 284 283 283 281 280 281 281
271 273 275 274 273 272 272 272 270 268 268 270 270 270 270 266 263 262 262 262 262 262 262 263 263 264 265 266 267 268 268 268 269 269 270 272 272 273 273 274 275 276 278 279 281 283 283 283 282 283 283 283 282 282 282 281 283 283 285 284 283 285 284 284 284 283 282 282 281 281 280 280 280 280
274 274 272 271 271 269 268 266 264 264 264 267 268 267 265 262 261 261 261 261 262 261 262 262 262 263 265 266 267 267 267 266 266 267 268 268 268 269 270 270 271 273 275 278 280 282 282 282 282 282 282 283 283 282 282 282 281 283 284 284 284 284 283 282 280 281 280 279 279 279 279 280 279 280
270 267 267 267 268 266 267 266 265 264 264 262 262 261 261 261 260 260 261 261 261 261 261 262 263 264 265 266 266 265 265 264 265 267 266 266 266 268 268 268 268 270 273 276 279 281 281 281 281 282 280 281 282 283 283 283 281 282 282 283 283 279 280 278 279 279 278 278 277 277 277 278 279 281
265 264 264 263 261 260 260 260 259 259 260 260 260 259 259 259 260 261 262 262 261 261 262 262 263 263 264 264 264 264 264 264 265 266 265 265 265 266 267 266 266 269 271 273 276 278 280 279 279 279 279 279 278 279 280 279 279 280 279 279 278 278 276 276 277 276 276 276 276 276 276 276 277 279
263 261 259 258 258 257 258 258 257 258 258 258 258 258 258 258 258 258 258 258 259 260 261 261 261 262 263 263 263 263 263 263 263 264 264 265 264 265 266 265 266 267 268 269 272 274 275 277 278 277 277 278 278 278 277 276 277 279 278 276 275 274 275 275 275 274 275 274 274 275 275 276 277 277
259 257 256 256 256 256 256 256 256 256 257 256 257 257 259 258 257 258 258 258 259 260 260 260 261 261 263 262 262 262 262 262 263 264 264 263 264 263 263 264 265 267 268 268 269 271 273 274 275 275 277 277 278 278 278 277 276 276 274 274 273 273 274 273 273 273 273 273 274 274 274 275 275 275
257 255 255 255 255 256 256 255 255 256 256 256 256 256 256 257 257 258 257 258 259 259 259 260 261 262 262 261 262 261 261 261 261 262 263 263 263 263 263 263 264 265 266 267 267 270 271 272 272 272 273 274 274 276 277 277 274 275 273 272 272 272 272 273 272 272 272 273 274 272 273 274 274 273
255 254 254 255 255 255 255 255 256 255 255 255 255 255 255 255 256 257 257 259 259 258 258 259 261 261 261 261 261 261 260 261 260 260 261 261 261 262 263 263 264 265 266 266 267 269 270 271 271 270 269 269 270 270 272 277 276 274 273 271 272 271 271 272 272 272 272 271 273 272 270 271 272 273
254 254 254 254 255 255 254 255 254 255 255 255 255 255 255 255 255 256 257 258 257 258 258 260 260 260 260 261 261 260 260 260 259 260 260 260 261 261 261 262 264 264 264 265 267 268 269 269 270 269 268 267 266 267 269 272 274 277 272 272 271 272 272 272 271 270 271 272 271 272 271 272 272 274
253 254 254 254 254 254 255 255 255 254 254 255 255 255 255 255 256 256 257 256 256 257 258 259 259 259 260 261 259 258 258 259 259 259 259 260 260 260 261 261 262 263 264 265 267 268 269 269 268 268 268 266 265 265 266 270 270 272 276 273 271 272 273 271 269 269 270 271 270 272 273 272 272 273
253 253 254 254 254 254 254 254 254 254 254 254 254 254 254 255 255 256 255 255 256 257 258 258 257 258 260 259 259 258 257 257 257 258 259 259 260 260 261 262 262 263 264 264 265 267 267 267 267 268 268 266 265 266 267 266 266 270 273 276 274 273 272 272 270 271 270 269 270 271 272 274 275 277
254 254 254 254 254 254 254 254 254 253 253 253 254 254 254 255 255 255 254 255 256 257 256 256 257 258 259 259 258 257 257 257 258 258 258 259 260 261 261 262 262 263 263 263 264 265 266 266 267 267 268 268 269 270 269 269 270 271 271 273 275 274 274 273 271 271 270 271 270 269 270 270 270 273
254 253 253 253 253 253 253 253 253 253 253 253 253 254 254 254 254 254 255 255 256 255 255 255 256 257 258 258 257 257 257 257 258 258 259 259 260 260 261 262 262 262 262 262 263 264 265 267 269 271 270 270 270 270 269 267 266 268 269 271 274 276 277 276 274 272 271 271 270 270 269 269 270 272
253 253 253 253 253 253 253 253 253 253 252 253 253 253 253 254 254 255 255 255 254 255 255 255 256 258 258 257 257 257 257 257 257 258 259 259 259 260 261 261 261 262 262 262 263 264 266 268 269 269 269 269 268 266 265 266 266 267 269 269 270 274 275 275 276 277 276 274 271 269 269 269 270 270
253 253 253 253 253 253 253 253 252 252 252 252 252 252 252 252 253 253 253 253 253 253 254 254 256 257 257 257 257 257 257 257 257 257 258 259 259 259 260 261 261 262 263 263 264 265 266 267 268 268 268 267 267 268 266 267 268 268 268 268 269 270 272 274 275 276 277 278 278 276 274 272 270 268
252 253 253 253 252 252 252 252 252 252 252 252 252 252 252 252 252 252 252 252 253 253 254 255 256 256 256 256 257 257 257 257 258 258 258 258 259 260 260 261 262 263 263 263 264 264 265 266 267 267 266 266 267 267 267 267 267 268 268 268 269 269 269 271 271 274 275 276 276 278 279 279 277 277
253 253 253 253 252 252 252 252 252 252 251 251 251 251 252 252 252 252 252 252 253 253 254 254 254 255 256 256 256 256 257 258 258 258 258 258 259 260 260 261 262 262 263 263 262 263 264 265 266 267 266 267 268 268 268 268 268 268 267 267 267 268 268 269 269 269 270 271 274 277 279 279 279 279
Wind_Speed
12 11 13 11 11 10 11 11 11 11 11 10 9 8 9 10 13 14 13 11 11 8 8 8 5 7 9 7 5 7 7 8 9 7 7 7 7 11 15 16 16 17 19 19 21 22 23 24 25 24 23 22 20 17 16 16 16 18 20 23 24 24 22 20 19 19 19 19 18 17 15 14 14 14
11 12 12 11 11 11 12 12 12 12 12 11 10 9 8 7 10 10 14 15 9 10 8 8 9 9 12 13 10 5 8 9 10 8 9 8 7 12 15 16 16 17 18 18 19 21 22 22 23 25 24 24 23 21 19 20 21 23 23 23 22 21 19 18 19 19 19 19 18 17 16 16 15 15
11 12 13 12 12 12 13 12 12 12 12 12 11 11 9 9 9 10 10 16 8 6 11 12 11 14 14 14 16 13 9 10 11 9 9 8 12 15 13 16 16 17 18 19 19 18 20 21 22 23 24 24 24 23 23 23 23 23 23 22 19 17 16 16 17 18 18 18 17 17 17 17 17 16
11 12 13 13 12 12 12 12 12 12 12 12 12 11 11 11 12 11 11 13 18 10 9 12 13 13 17 17 15 17 14 11 13 9 10 11 14 10 8 13 16 16 17 18 18 18 17 17 19 21 22 23 23 24 24 23 23 24 20 16 14 13 13 12 12 12 13 15 16 17 18 18 18 18
12 12 13 13 13 12 13 12 12 11 12 13 11 11 11 11 11 12 12 14 17 14 4 9 12 12 12 15 14 16 16 16 13 13 11 11 10 10 9 10 14 15 15 16 17 18 18 18 18 18 19 20 21 21 21 20 20 17 15 14 13 11 11 11 12 12 12 12 13 14 16 17 18 18
11 12 13 14 14 12 12 13 12 11 12 12 12 12 11 10 10 10 11 12 13 19 15 11 11 12 9 13 13 13 15 18 17 18 16 12 9 9 9 9 9 15 15 15 16 17 17 18 18 19 19 18 19 18 18 18 17 17 16 14 13 13 14 14 14 14 14 14 13 14 14 15 16 17
13 14 14 14 13 11 13 13 12 12 12 12 12 13 11 11 11 11 12 12 15 18 17 14 14 13 10 8 12 16 12 15 13 15 14 14 12 10 10 10 9 13 15 16 17 17 17 17 17 18 18 17 18 18 18 19 18 18 16 15 15 15 15 14 14 14 13 14 14 14 15 15 16 17
14 14 14 14 14 14 14 13 12 11 12 12 12 13 11 11 14 13 12 12 13 14 17 16 13 10 13 11 9 10 12 13 15 14 16 17 16 13 11 10 11 12 16 16 17 17 17 16 16 17 17 17 18 18 19 20 20 20 18 16 16 15 15 14 14 13 13 14 14 15 15 15 14 17
15 14 14 15 15 14 15 13 12 9 12 12 12 11 10 11 11 10 11 13 13 15 17 17 13 13 12 12 9 9 12 12 11 12 14 14 16 17 14 11 10 14 17 16 17 18 18 17 18 18 19 19 19 19 20 21 20 19 19 19 19 17 16 15 14 13 13 14 15 15 14 14 14 13
14 14 14 14 13 15 16 15 12 11 13 12 10 10 10 11 11 11 13 13 13 14 15 15 17 12 11 12 9 8 11 12 14 14 12 12 11 13 16 16 12 11 10 9 9 11 13 15 18 19 19 20 20 20 20 19 19 19 19 19 19 19 18 16 14 13 13 14 14 14 14 14 13 13
13 14 14 13 13 14 14 15 15 16 16 10 11 10 10 10 11 11 11 12 14 13 14 13 12 12 9 9 13 10 9 10 11 13 13 14 11 10 10 15 15 12 13 14 17 16 16 19 16 16 17 18 20 20 19 19 19 19 19 19 18 19 19 19 16 13 13 14 14 14 14 14 14 14
12 12 11 12 13 14 14 15 15 14 13 13 13 11 10 11 13 11 11 11 12 12 11 10 12 8 12 9 9 8 9 9 10 9 11 13 14 13 10 8 12 15 14 13 13 12 13 13 14 16 17 19 19 19 17 19 19 20 18 18 18 19 19 18 17 15 13 14 14 14 14 13 13 14
9 11 11 11 13 16 21 24 21 20 19 14 13 13 13 12 12 12 13 13 12 12 12 12 10 11 10 10 11 10 7 8 9 10 11 13 12 13 14 15 13 11 13 13 13 14 10 10 11 10 10 10 12 13 16 15 18 18 17 18 18 18 17 16 15 13 13 13 14 14 13 12 12 13
10 10 10 11 19 22 23 22 22 23 23 23 18 14 13 13 12 14 15 13 12 12 13 14 15 15 14 12 11 11 11 11 10 11 11 13 12 15 13 14 12 10 10 12 14 13 10 9 9 9 10 9 8 5 7 8 10 12 14 16 15 14 14 13 13 13 14 13 13 11 10 11 12 13
12 10 11 11 14 17 16 16 22 22 22 22 22 22 21 19 16 14 15 14 13 13 13 14 15 14 17 15 11 11 11 10 10 9 10 12 11 13 15 16 14 4 6 10 13 15 13 11 12 11 10 8 8 5 7 10 10 11 11 10 10 11 11 10 10 10 10 11 11 11 11 11 12 13
10 11 12 11 10 10 13 13 13 16 20 21 22 22 22 22 22 21 16 15 14 14 15 16 15 15 15 16 13 12 11 11 12 11 11 12 12 13 14 13 15 9 14 12 14 17 14 10 10 12 12 9 6 8 9 10 9 8 8 8 9 8 8 8 8 9 10 10 10 11 11 12 12 13
9 10 11 11 11 9 17 15 13 13 14 18 22 22 22 21 22 22 24 22 17 15 16 16 17 15 15 16 15 14 14 14 14 12 11 10 10 10 14 13 14 12 11 14 13 17 18 15 12 12 13 13 9 8 10 14 14 10 9 9 8 8 8 9 10 12 13 13 14 14 14 14 14 13
8 11 13 13 12 12 13 13 13 14 15 16 15 15 15 14 17 21 22 22 23 19 15 15 16 16 16 17 16 14 14 15 15 14 15 13 13 13 15 15 16 14 10 13 12 16 17 16 14 13 13 13 13 9 11 14 12 10 11 11 12 12 12 13 14 14 14 15 15 15 14 14 13 13
10 12 13 13 13 14 13 12 16 16 16 16 15 16 15 15 15 15 15 14 13 14 13 15 16 15 12 11 13 13 13 12 12 14 16 15 15 15 15 15 12 13 11 13 11 18 14 14 15 13 12 12 14 10 14 19 19 16 15 16 16 16 16 18 19 18 18 17 16 15 14 12 12 13
11 11 12 13 14 14 14 17 23 21 18 16 16 17 16 16 15 14 15 20 20 18 16 14 14 15 18 24 22 21 19 17 15 14 15 13 13 14 15 15 11 12 7 11 12 13 14 14 15 13 11 12 15 13 12 14 19 16 16 18 18 19 18 19 19 18 17 16 14 13 12 12 13 13
13 13 13 14 13 14 13 19 25 25 24 15 16 16 16 16 16 15 13 17 21 22 24 27 28 29 29 29 30 31 33 26 22 15 14 13 12 14 15 15 15 14 9 8 9 12 15 12 14 13 11 12 14 14 13 10 13 14 14 17 19 20 19 20 21 19 15 13 13 11 9 8 7 8
13 15 22 19 14 14 14 22 26 26 22 15 14 15 18 18 16 15 13 11 13 21 24 26 27 28 29 30 30 29 29 27 22 14 15 16 15 15 14 17 16 15 12 11 9 13 14 14 15 14 11 10 10 12 11 10 9 12 15 19 20 20 21 22 18 15 12 8 5 4 2 3 4 3
13 14 15 18 17 16 19 27 26 27 22 13 15 17 17 16 16 15 16 15 16 17 17 16 16 16 18 16 15 16 25 25 22 15 14 14 14 13 14 15 15 15 11 9 8 12 11 13 13 12 11 13 11 11 9 9 8 8 9 11 12 17 17 16 12 9 7 4 1 2 3 5 5 3
15 14 13 13 18 22 25 26 27 27 24 17 16 15 14 15 17 16 16 15 15 16 16 16 15 16 15 15 15 14 14 14 12 12 12 12 13 13 13 13 13 14 12 11 9 13 12 13 14 10 13 14 12 8 5 6 7 8 7 6 6 8 10 9 7 5 1 2 4 6 6 7 6 4
14 14 13 13 19 24 27 27 29 25 23 23 16 14 13 15 19 21 14 16 20 14 15 15 14 13 13 14 13 12 11 12 14 13 14 13 13 13 13 14 12 11 13 14 17 14 15 12 15 11 13 12 9 9 6 5 5 5 6 7 7 6 4 4 2 0 3 5 6 8 8 9 10 6
13 14 14 13 19 27 28 28 24 24 24 26 14 14 22 26 25 17 12 12 12 12 12 12 13 12 12 12 11 12 13 12 13 14 14 14 14 14 14 15 16 15 14 15 21 15 14 13 13 14 12 12 13 12 12 9 5 6 5 6 7 7 7 6 3 1 0 0 1 3 5 9 10 11
15 14 14 16 24 28 23 21 25 26 26 19 14 23 23 23 23 17 9 12 12 11 11 12 12 11 11 12 12 13 13 14 15 15 16 16 15 14 15 16 16 16 16 16 16 16 14 13 11 14 13 11 12 9 11 11 9 4 6 5 6 6 5 5 5 4 3 1 1 4 6 9 11 13
15 15 14 17 26 20 22 23 22 21 19 14 20 21 22 21 18 10 11 10 11 12 11 11 10 11 11 11 12 13 13 15 16 17 16 15 15 15 14 16 17 16 16 14 15 14 15 14 13 12 13 13 13 12 10 7 6 3 5 5 5 5 5 5 5 3 2 3 2 2 3 5 5 6
14 19 28 24 17 19 21 22 20 14 15 18 19 21 21 18 9 9 9 11 11 10 11 11 11 11 11 12 13 14 15 16 15 14 14 13 13 11 14 14 15 14 12 12 13 13 13 13 13 12 13 12 12 11 9 10 9 7 4 5 4 3 3 3 4 4 4 2 1 1 3 4 5 4
27 26 17 17 18 16 16 11 9 8 10 17 19 19 17 8 8 7 8 9 9 10 11 12 12 12 12 12 12 14 14 14 13 14 14 14 12 12 12 15 14 11 12 13 13 12 12 12 12 13 14 13 13 11 10 10 10 9 8 8 6 2 2 4 3 2 2 1 3 3 4 5 6 6
11 8 10 11 15 13 17 16 14 14 13 10 9 8 7 7 7 7 7 9 10 10 10 11 10 10 11 12 11 11 11 12 12 12 14 13 14 13 13 14 16 14 12 12 12 11 10 10 12 13 14 14 12 12 11 10 11 10 8 7 8 9 3 3 2 3 2 2 1 2 3 5 6 8
6 7 8 11 7 8 9 8 7 7 7 8 9 8 8 8 8 10 14 13 8 8 9 9 10 10 9 7 8 10 8 10 9 11 12 13 15 14 14 14 14 13 14 12 11 11 11 10 10 10 11 10 8 6 5 5 5 5 3 1 1 1 1 4 3 2 1 1 2 3 5 6 7 7
6 8 10 9 10 7 9 8 7 8 7 8 8 9 9 8 9 8 7 8 9 9 9 10 11 11 9 8 7 8 9 10 10 10 11 11 12 14 12 13 13 13 14 14 12 12 12 11 11 11 10 10 10 9 7 6 7 5 5 4 3 3 3 2 3 3 1 2 3 4 6 6 7 7
8 7 8 7 7 8 7 8 8 8 8 8 9 7 9 10 9 9 8 8 9 10 10 11 11 11 9 9 9 9 10 10 9 9 12 12 11 14 13 13 13 12 12 12 12 12 12 13 13 12 10 9 8 8 8 7 8 4 3 4 4 5 4 3 2 3 3 3 3 4 6 7 7 6
7 8 8 8 7 7 7 7 8 8 8 9 9 9 8 8 9 10 8 9 9 10 10 11 10 10 9 10 9 10 10 12 10 8 7 10 10 10 12 13 13 12 12 12 12 10 12 11 12 13 11 10 8 5 6 5 6 5 2 3 4 4 4 2 2 2 3 3 3 5 6 7 8 6
7 7 7 8 7 7 7 7 7 8 8 9 9 9 9 9 8 9 9 10 10 10 10 11 11 10 11 10 9 8 10 13 10 11 10 9 10 11 11 13 13 12 11 10 10 10 10 11 10 11 11 10 8 9 3 1 3 3 3 3 2 2 3 2 2 2 3 3 3 3 6 9 8 5
7 6 7 7 7 7 8 8 7 7 8 8 9 8 9 9 9 9 10 12 10 10 11 11 10 9 11 11 9 9 12 12 10 11 10 10 9 10 11 12 13 12 10 11 10 9 10 9 8 9 10 8 8 9 8 1 5 5 1 2 1 2 3 2 2 3 4 4 4 5 6 5 6 7
6 7 7 7 7 8 7 8 8 8 7 8 9 9 9 9 9 9 9 8 9 9 10 9 9 11 11 9 8 9 9 10 10 11 11 9 10 10 10 10 11 10 11 10 10 10 9 9 7 8 7 8 9 9 10 5 4 4 3 2 2 4 2 3 3 5 5 3 5 5 4 6 8 8
6 7 7 8 8 7 8 8 8 8 8 8 9 9 10 9 8 8 8 9 10 9 9 9 9 10 11 8 7 9 11 12 11 10 10 9 9 9 9 10 10 10 10 11 9 8 8 8 9 8 7 8 8 9 8 8 10 8 8 14 8 5 4 4 5 4 4 4 4 4 5 7 8 13
7 7 7 7 8 8 8 8 7 7 8 8 9 9 9 10 9 9 9 10 9 9 10 10 12 12 10 7 8 9 9 11 10 9 10 10 11 12 10 10 10 10 11 11 11 8 8 8 7 9 9 9 9 9 9 10 9 9 9 11 17 11 6 2 4 4 5 5 4 3 6 3 4 2
7 8 7 7 8 8 8 8 8 8 8 8 9 10 10 9 10 9 9 10 11 10 9 9 10 11 9 7 9 9 10 10 10 10 10 11 13 14 16 16 12 9 10 12 10 10 10 9 13 21 18 12 11 9 7 6 7 7 5 5 7 10 9 6 4 3 5 3 2 5 5 5 3 2
7 8 8 7 8 8 8 8 8 8 8 8 8 9 9 9 9 15 13 13 10 10 9 9 10 11 9 8 9 9 9 10 10 11 11 10 10 12 14 12 10 10 10 11 10 10 11 12 15 12 10 9 8 6 8 8 8 7 5 3 3 4 5 7 8 6 3 4 5 3 4 4 2 2
7 7 8 8 7 8 7 8 8 8 8 8 9 9 9 9 9 9 8 9 9 8 8 9 9 10 9 9 9 9 9 10 11 10 11 11 11 11 11 9 11 11 10 11 10 10 11 11 10 10 10 8 7 7 7 8 7 6 4 4 4 2 3 5 6 7 7 9 8 5 4 4 2 2
7 8 8 8 8 8 7 7 8 7 8 8 9 9 8 9 9 9 9 9 9 9 9 9 10 10 10 10 10 9 9 9 9 11 12 11 11 10 11 12 13 11 10 10 11 11 10 9 9 9 10 9 8 6 7 7 7 6 5 3 2 2 3 3 4 4 5 7 12 15 8 8 8 5
8 8 8 8 8 8 7 7 7 8 8 8 8 8 9 8 8 8 8 8 9 9 9 9 9 9 10 10 10 10 9 12 12 10 11 11 11 12 12 12 12 11 10 10 11 11 10 10 9 8 8 9 8 7 6 5 5 3 2 1 2 2 2 2 2 3 4 5 9 17 2 3 5 8
Wind_Direction
331 335 338 334 329 331 335 333 331 329 331 328 321 325 326 322 310 313 309 303 308 314 308 303 299 317 310 292 272 276 267 266 264 265 265 266 266 269 266 263 259 257 257 256 256 256 255 256 259 263 267 267 266 261 254 247 242 240 243 249 254 256 257 257 254 251 251 251 254 255 254 254 255 255
330 333 334 335 333 334 336 333 332 334 330 324 323 322 316 312 306 306 305 302 298 299 320 327 323 337 325 320 313 280 280 270 266 271 273 269 266 262 263 263 261 258 257 256 255 254 255 256 258 262 265 267 267 265 263 263 262 260 260 258 258 257 254 252 250 249 249 249 249 250 253 253 252 252
330 332 332 334 332 333 333 333 334 332 329 325 322 318 317 319 314 311 309 304 297 352 325 320 336 333 334 333 323 318 305 291 281 280 279 275 270 269 271 268 264 261 262 262 259 253 253 255 257 259 263 265 266 265 265 266 266 265 264 263 261 257 253 250 250 249 248 248 246 244 246 248 248 249
328 329 329 331 331 332 332 332 332 330 328 324 320 334 340 338 335 328 316 303 299 315 312 308 314 327 326 324 320 320 322 321 309 296 290 285 283 279 272 269 266 264 261 261 260 258 257 257 258 260 262 263 265 266 265 267 269 270 271 273 273 268 265 262 257 252 251 250 249 247 245 247 248 249
328 328 328 329 328 329 328 329 328 328 328 326 330 337 334 327 323 319 315 309 306 302 306 312 311 324 323 312 319 321 321 321 325 324 311 306 300 291 286 284 278 270 261 256 256 258 258 258 258 259 261 263 264 264 266 267 268 271 273 273 274 272 266 264 264 264 261 258 256 254 251 250 251 250
327 325 325 325 326 326 326 325 325 328 328 327 327 326 322 318 318 323 315 307 304 306 316 317 316 313 327 312 320 320 324 321 322 318 314 306 302 295 293 290 286 280 276 269 264 262 261 260 259 260 261 263 264 264 264 264 263 262 261 258 258 258 258 258 257 260 262 262 260 259 258 256 255 256
324 324 322 322 321 324 323 324 324 326 323 323 321 318 318 317 325 330 329 325 317 312 307 313 314 315 316 311 317 322 322 311 306 308 310 311 314 311 299 294 290 285 282 280 275 268 263 260 259 257 256 256 259 262 263 263 260 255 251 250 248 247 247 245 245 246 247 250 253 254 255 255 257 259
322 320 318 320 322 323 319 317 317 321 321 318 313 312 317 327 327 322 320 318 309 308 306 311 311 313 309 315 314 311 308 315 319 319 316 316 312 310 306 298 296 291 285 279 275 272 270 265 260 257 254 254 254 256 258 259 259 259 257 254 250 247 244 241 239 238 238 242 244 246 249 251 253 255
321 319 320 321 320 318 312 308 305 310 315 312 308 314 327 325 321 319 319 318 315 311 307 307 308 313 309 308 308 315 320 318 308 308 309 312 310 308 305 299 293 292 288 277 271 269 267 265 263 262 261 258 256 253 252 253 254 256 258 262 262 257 250 244 238 234 234 237 239 241 243 245 247 247
319 316 312 309 307 312 309 305 309 311 308 305 308 320 323 322 315 314 319 316 310 305 300 302 305 308 310 312 307 325 319 312 312 313 312 311 316 322 324 319 319 318 312 307 295 283 274 266 264 262 262 260 259 257 254 252 250 250 251 253 257 258 256 251 244 237 235 237 239 240 242 243 244 245
304 306 313 319 326 329 330 331 331 326 316 310 316 318 318 313 314 316 314 311 307 302 297 297 295 301 302 303 307 316 304 300 303 309 320 315 315 309 312 312 312 308 305 304 301 296 290 283 278 270 262 257 255 254 254 254 254 253 251 250 250 252 256 258 254 239 235 236 237 239 240 240 241 243
306 320 328 330 331 329 328 326 324 324 324 324 319 319 317 317 314 310 305 304 304 301 296 294 303 301 304 305 293 295 311 307 303 309 311 309 313 310 307 290 302 308 308 307 301 291 287 286 281 277 272 267 261 258 258 256 255 253 251 248 247 248 251 253 256 252 242 239 239 241 240 239 238 239
322 324 324 327 328 326 324 321 317 317 320 321 320 319 319 316 312 305 305 305 305 306 304 302 299 297 298 298 305 312 311 313 308 314 314 300 297 299 302 303 296 297 303 305 302 299 295 289 287 284 278 270 263 257 252 254 253 250 247 246 246 246 247 250 252 253 252 249 247 246 245 244 242 241
322 321 325 323 323 320 318 316 317 319 321 320 317 314 314 314 310 307 305 304 303 304 305 304 304 303 302 303 309 308 305 301 301 301 298 297 310 309 301 294 289 304 301 299 295 294 302 304 295 292 287 285 279 273 258 243 242 244 240 242 245 247 249 249 249 248 250 254 256 255 249 245 244 243
319 326 327 322 318 316 316 316 318 320 320 318 317 316 315 312 309 307 305 303 305 307 304 301 298 296 297 301 303 295 297 293 298 296 302 303 306 303 308 304 305 221 273 304 305 296 291 296 298 295 285 287 291 281 265 269 262 255 254 253 247 244 244 246 250 253 256 260 266 270 265 249 244 244
326 329 326 320 314 314 314 317 316 316 316 317 318 317 317 317 315 311 309 310 310 308 303 300 296 295 296 301 301 304 308 314 307 304 296 291 290 289 290 293 292 319 329 315 307 298 300 298 285 286 283 278 265 269 266 267 266 263 264 259 260 265 265 263 260 259 260 260 261 261 262 259 251 246
330 327 319 315 314 313 321 324 321 319 318 319 321 322 321 319 316 312 308 305 302 302 298 295 293 293 299 301 303 300 300 304 301 305 294 290 286 288 289 289 293 297 311 301 292 290 290 291 289 285 286 287 275 261 265 263 262 255 258 262 264 262 264 264 262 260 260 260 261 261 261 261 259 249
325 323 319 317 316 319 322 320 319 320 321 321 320 319 317 315 312 309 306 304 302 298 293 292 293 297 294 290 293 298 305 305 301 301 296 297 289 288 284 290 289 293 293 284 293 280 279 281 279 271 278 279 279 266 262 260 254 262 270 274 276 275 272 269 264 262 262 262 260 257 254 252 253 255
327 322 316 313 314 316 317 317 318 320 319 318 318 316 315 311 309 307 305 303 300 298 295 291 287 286 288 292 300 301 296 284 282 285 288 291 289 286 284 278 271 276 269 272 266 269 277 275 275 267 269 271 274 268 268 268 268 266 270 274 275 274 270 266 264 261 259 258 256 253 250 249 248 251
324 317 313 312 313 313 314 316 317 318 318 317 315 314 313 314 312 307 305 303 301 297 294 294 296 300 301 301 300 299 299 298 297 292 290 290 289 289 287 285 285 272 268 266 270 272 270 270 272 273 266 268 268 266 258 260 265 265 267 270 270 269 266 263 261 259 255 252 249 248 249 249 250 250
318 315 312 313 312 312 314 316 316 318 319 315 315 317 320 316 312 310 307 302 302 306 308 307 304 303 303 302 302 302 301 300 300 303 299 292 292 287 290 287 287 281 283 266 271 280 281 278 277 276 264 261 263 261 260 252 257 255 253 256 258 255 253 253 251 251 247 244 248 252 254 256 260 268
313 311 310 310 310 313 315 316 317 318 319 320 327 327 321 317 314 312 311 314 320 316 310 307 305 304 301 300 300 298 296 295 295 289 286 287 287 282 279 280 281 281 273 271 264 267 265 279 275 283 277 267 253 261 261 261 257 254 254 254 252 250 245 246 246 242 239 229 204 189 216 253 281 277
312 308 307 309 312 316 315 316 315 316 321 335 333 328 322 318 313 315 319 324 321 318 315 309 309 304 303 301 298 295 296 296 294 284 276 277 275 275 276 278 283 280 274 266 245 257 261 261 263 265 272 261 256 251 256 256 248 239 238 245 247 249 247 242 232 206 172 161 193 305 309 306 312 292
309 308 307 312 316 317 315 313 313 315 328 338 333 329 323 316 315 320 323 323 320 314 309 307 307 305 308 307 304 299 293 290 294 312 314 316 315 313 311 308 304 299 302 306 300 282 281 281 283 281 275 283 278 273 245 252 238 234 227 238 236 241 228 214 175 148 100 360 330 325 318 313 315 303
307 309 312 312 315 314 312 310 310 320 333 336 335 327 316 314 318 325 326 322 321 311 308 307 309 310 311 308 303 304 321 331 325 319 317 317 315 310 307 302 295 287 287 290 297 291 286 274 271 270 266 261 267 275 254 228 225 216 204 197 213 228 176 181 139 17 13 357 347 336 329 319 310 299
307 310 310 310 312 311 309 312 321 329 332 335 334 318 317 321 326 331 326 318 315 311 310 310 309 310 310 311 318 328 326 322 319 312 307 307 307 303 296 291 293 293 294 300 300 294 292 285 274 267 261 266 270 267 276 264 233 234 219 218 209 204 176 187 169 158 144 84 332 315 304 303 300 298
309 309 306 308 305 308 323 337 331 327 332 335 324 321 324 327 333 335 323 317 314 311 310 311 309 312 318 322 323 320 319 317 318 315 308 303 298 294 298 300 298 295 297 294 290 284 282 283 284 283 283 278 277 275 262 263 261 206 218 209 202 185 173 161 185 179 167 144 326 300 303 300 302 299
306 304 307 301 310 334 341 338 337 336 339 331 327 326 327 334 336 329 322 318 315 312 311 312 314 317 320 320 318 320 320 319 315 310 306 303 304 306 304 300 295 290 289 285 283 279 278 278 274 266 266 267 271 269 274 280 289 264 230 220 202 198 182 170 162 157 145 127 139 254 300 299 298 300
301 304 306 320 342 340 338 336 340 340 335 331 328 329 332 335 327 323 318 317 314 313 313 314 314 314 318 318 316 320 319 315 312 308 305 302 302 301 296 288 290 291 291 289 287 283 282 284 281 277 269 262 262 263 261 265 268 257 226 238 261 242 180 170 151 161 142 128 173 235 262 266 272 270
308 310 338 346 339 343 337 337 334 334 331 329 329 328 329 322 318 312 314 309 311 311 315 314 311 312 315 314 318 321 320 318 315 313 312 315 314 313 310 311 302 297 293 289 286 288 290 289 284 280 275 269 259 259 256 260 257 254 234 230 218 244 199 122 117 111 132 176 196 233 246 246 257 261
310 1 349 338 335 331 334 338 338 333 331 328 325 322 319 316 311 311 309 312 313 312 305 304 300 303 306 306 312 318 318 314 313 316 314 314 313 315 313 307 304 307 304 302 299 300 304 314 315 302 284 272 267 259 257 253 256 259 249 217 200 199 182 118 169 152 185 178 185 249 263 265 260 243
23 344 343 339 339 338 340 340 334 327 323 322 320 317 316 311 309 311 313 310 302 297 297 294 300 297 298 299 317 315 310 312 310 316 314 313 312 315 312 308 308 310 311 314 314 310 316 319 320 320 313 305 296 293 300 296 287 288 302 320 350 343 57 182 188 198 189 212 249 235 246 248 253 250
4 352 347 349 339 341 329 328 324 319 318 318 319 315 316 316 318 316 314 314 313 310 307 309 309 306 303 307 312 306 313 314 315 313 308 309 310 312 309 304 307 315 316 317 321 324 321 313 321 316 304 295 284 280 280 278 269 250 232 195 197 223 244 256 213 225 144 190 232 248 257 247 246 251
359 353 337 330 328 320 322 318 321 320 319 317 316 314 314 315 313 313 313 311 307 310 312 307 306 304 304 309 313 317 315 311 308 313 320 313 312 312 312 309 309 309 310 313 319 317 317 323 320 314 305 289 268 258 257 256 267 244 195 180 178 216 237 193 238 228 226 212 226 260 259 268 260 253
359 335 327 318 315 312 308 311 313 318 316 313 311 311 312 306 309 310 309 307 308 311 308 304 297 299 311 310 312 318 320 316 314 310 305 306 305 305 308 308 308 312 316 315 315 317 319 316 318 317 319 321 315 272 219 248 281 275 165 197 205 216 231 203 230 232 240 245 228 244 261 268 274 257
336 322 314 312 310 311 312 309 311 311 312 310 310 310 311 310 309 312 308 312 315 310 305 301 306 312 311 305 309 317 318 320 314 312 310 310 310 310 307 305 306 307 308 308 307 312 313 312 319 319 320 323 318 311 295 49 12 279 261 237 188 215 238 229 233 251 255 241 223 213 233 257 262 274
317 310 309 306 305 308 307 309 308 308 308 310 309 307 305 307 308 304 302 311 308 303 303 304 305 309 306 302 309 319 317 316 310 313 309 308 303 302 302 304 307 307 304 302 304 303 307 308 313 316 319 318 314 303 302 6 347 22 106 319 297 257 269 271 289 278 263 241 225 210 231 248 265 266
303 309 305 305 306 305 305 305 307 305 307 309 307 305 300 299 300 298 303 308 304 299 300 304 308 307 300 301 317 318 315 311 308 306 306 306 309 308 304 303 305 303 300 298 302 305 306 304 309 311 311 307 306 305 302 321 340 330 332 354 278 290 285 285 273 257 275 244 228 244 232 242 252 256
296 299 302 301 303 304 305 305 306 305 307 308 307 306 304 299 299 305 309 307 305 301 306 309 306 304 303 307 319 321 316 314 312 308 307 307 302 298 302 304 301 301 304 303 302 300 305 306 310 305 303 299 294 291 297 297 292 288 291 290 292 289 270 245 260 269 265 272 264 251 249 254 271 272
300 295 295 300 300 302 298 301 300 301 302 304 305 303 302 302 304 306 307 304 304 311 311 307 307 306 299 309 320 314 306 305 304 304 303 303 308 309 306 305 304 306 304 303 305 304 303 297 300 307 301 292 284 281 276 273 274 275 273 270 262 258 264 268 249 268 277 258 244 245 264 280 259 259
302 301 297 297 297 298 301 301 300 300 301 303 302 305 303 299 301 301 302 309 314 311 306 303 301 298 297 315 321 316 309 307 306 304 303 306 310 311 310 311 304 300 302 304 301 301 303 306 303 300 296 288 284 279 268 258 266 273 265 261 254 240 251 277 285 235 242 250 207 244 260 256 250 305
296 297 298 296 296 298 300 299 300 300 301 304 304 303 302 302 296 305 308 308 304 303 302 302 304 301 303 317 315 310 305 306 306 305 306 304 303 305 307 306 299 300 300 300 302 301 301 303 301 300 293 287 278 269 270 274 280 286 270 271 271 267 284 291 302 315 303 230 221 272 267 277 240 259
295 293 296 297 296 296 297 298 298 299 300 303 303 302 301 299 300 303 304 305 305 301 298 301 300 302 310 312 308 304 303 304 304 301 304 306 305 304 304 300 299 298 298 300 297 298 301 300 301 304 303 294 278 264 269 276 276 281 280 278 267 306 295 303 315 315 332 356 359 305 221 230 182 227
295 297 294 296 297 296 295 296 297 299 300 301 300 300 298 299 301 303 303 302 303 303 301 303 309 311 309 307 304 301 301 302 306 310 308 306 306 302 303 303 303 298 300 303 304 305 303 301 299 301 301 297 296 283 274 283 280 268 256 266 294 322 293 318 305 330 348 348 348 338 280 228 232 257
298 296 297 297 297 297 297 297 298 301 301 299 300 297 297 294 292 296 297 299 297 298 303 305 304 301 303 304 306 307 309 312 309 300 302 302 302 304 303 302 302 302 305 310 307 305 308 306 300 295 293 296 294 281 280 283 290 282 275 296 302 296 310 311 343 357 347 317 338 339 276 171 157 102